When you browse on this site, cookies collect data to enhance your experience and personalize the content and advertising you see.
Visit our Privacy Policy to learn more. By continuing to use the site, you agree to this use of cookies and data.
  • en Suisse
  • Liste des pays
  • À 7 jours
  • Température de l'eau
  • Carte satellitaire
  • Carte météo
  • Widgets météo
  • user-avatar
    Se connecter

    Météo par heure à Pabna

    Ce jour, 25 Avril, Jeudi

    Heure Température Précipitation Vent Pression Humidité
    00:00 +34°C° 0 mm 1 m/s 753 mmHg 38%
    01:00 +34°C° 0 mm 1 m/s 753 mmHg 40%
    02:00 +34°C° 0 mm 2 m/s 753 mmHg 42%
    03:00 +34°C° 0 mm 2 m/s 753 mmHg 44%
    04:00 +32°C° 0 mm 2 m/s 753 mmHg 47%
    05:00 +32°C° 0 mm 2 m/s 753 mmHg 50%
    06:00 +31°C° 0 mm 2 m/s 753 mmHg 52%
    07:00 +34°C° 0 mm 2 m/s 754 mmHg 48%
    08:00 +35°C° 0 mm 2 m/s 754 mmHg 43%
    09:00 +37°C° 0 mm 2 m/s 755 mmHg 39%
    10:00 +38°C° 0 mm 2 m/s 754 mmHg 35%
    11:00 +39°C° 0 mm 2 m/s 754 mmHg 30%
    12:00 +41°C° 0 mm 1 m/s 754 mmHg 26%
    13:00 +41°C° 0 mm 1 m/s 753 mmHg 24%
    14:00 +42°C° 0 mm 1 m/s 752 mmHg 22%
    15:00 +42°C° 0 mm 1 m/s 751 mmHg 21%
    16:00 +42°C° 0 mm 1 m/s 751 mmHg 21%
    17:00 +42°C° 0 mm 1 m/s 750 mmHg 22%
    18:00 +38°C° 0 mm 0 m/s 750 mmHg 23%
    19:00 +41°C° 0 mm 1 m/s 750 mmHg 24%
    20:00 +40°C° 0 mm 1 m/s 751 mmHg 24%
    21:00 +39°C° 0 mm 1 m/s 751 mmHg 25%
    22:00 +39°C° 0 mm 2 m/s 751 mmHg 27%
    23:00 +38°C° 0 mm 2 m/s 751 mmHg 29%

    Demain, 26 Avril, Vendredi

    Heure Température Précipitation Vent Pression Humidité
    00:00 +37°C° 0 mm 3 m/s 751 mmHg 31%
    01:00 +36°C° 0 mm 3 m/s 751 mmHg 36%
    02:00 +35°C° 0 mm 4 m/s 751 mmHg 42%
    03:00 +34°C° 0 mm 5 m/s 751 mmHg 47%
    04:00 +34°C° 0 mm 4 m/s 751 mmHg 50%
    05:00 +33°C° 0 mm 4 m/s 751 mmHg 54%
    06:00 +33°C° 0 mm 4 m/s 751 mmHg 57%
    07:00 +34°C° 0 mm 4 m/s 752 mmHg 50%
    08:00 +36°C° 0 mm 4 m/s 752 mmHg 43%
    09:00 +38°C° 0 mm 4 m/s 753 mmHg 36%
    10:00 +39°C° 0 mm 3 m/s 753 mmHg 31%
    11:00 +42°C° 0 mm 3 m/s 752 mmHg 27%
    12:00 +42°C° 0 mm 2 m/s 752 mmHg 23%
    13:00 +42°C° 0 mm 2 m/s 751 mmHg 22%
    14:00 +42°C° 0 mm 2 m/s 750 mmHg 22%
    15:00 +42°C° 0 mm 2 m/s 749 mmHg 21%
    16:00 +42°C° 0 mm 1 m/s 749 mmHg 22%
    17:00 +41°C° 0 mm 1 m/s 749 mmHg 23%
    18:00 +41°C° 0 mm 1 m/s 749 mmHg 24%
    19:00 +40°C° 0 mm 2 m/s 749 mmHg 25%
    20:00 +40°C° 0 mm 2 m/s 750 mmHg 25%
    21:00 +39°C° 0 mm 3 m/s 750 mmHg 26%
    22:00 +38°C° 0 mm 4 m/s 751 mmHg 31%
    23:00 +37°C° 0 mm 5 m/s 751 mmHg 36%

    Après-demain, 27 Avril, Samedi

    Heure Température Précipitation Vent Pression Humidité
    00:00 +35°C° 0 mm 6 m/s 751 mmHg 42%
    01:00 +35°C° 0 mm 5 m/s 751 mmHg 47%
    02:00 +34°C° 0 mm 5 m/s 751 mmHg 53%
    03:00 +33°C° 0 mm 5 m/s 750 mmHg 59%
    04:00 +33°C° 0 mm 4 m/s 751 mmHg 60%
    05:00 +33°C° 0 mm 4 m/s 751 mmHg 61%
    06:00 +31°C° 0 mm 3 m/s 751 mmHg 62%
    07:00 +34°C° 0 mm 3 m/s 752 mmHg 54%
    08:00 +36°C° 0 mm 4 m/s 752 mmHg 47%
    09:00 +38°C° 0 mm 4 m/s 753 mmHg 40%
    10:00 +41°C° 0 mm 4 m/s 752 mmHg 34%
    11:00 +43°C° 0 mm 4 m/s 752 mmHg 29%
    12:00 +45°C° 0 mm 5 m/s 751 mmHg 23%
    13:00 +46°C° 0 mm 5 m/s 750 mmHg 22%
    14:00 +45°C° 0 mm 4 m/s 749 mmHg 22%
    15:00 +45°C° 0 mm 4 m/s 748 mmHg 21%
    16:00 +44°C° 0 mm 4 m/s 748 mmHg 23%
    17:00 +43°C° 0 mm 4 m/s 747 mmHg 25%
    18:00 +43°C° 0 mm 4 m/s 747 mmHg 27%
    19:00 +41°C° 0 mm 5 m/s 748 mmHg 30%
    20:00 +40°C° 0 mm 7 m/s 748 mmHg 33%
    21:00 +39°C° 0 mm 8 m/s 749 mmHg 36%
    22:00 +38°C° 0 mm 8 m/s 749 mmHg 40%
    23:00 +36°C° 0 mm 7 m/s 750 mmHg 45%

    28 Avril, Dimanche

    Heure Température Précipitation Vent Pression Humidité
    00:00 +34°C° 0 mm 6 m/s 750 mmHg 50%
    01:00 +34°C° 0 mm 6 m/s 750 mmHg 54%
    02:00 +34°C° 0 mm 6 m/s 750 mmHg 58%
    03:00 +33°C° 0 mm 5 m/s 750 mmHg 62%
    04:00 +33°C° 0 mm 5 m/s 750 mmHg 63%
    05:00 +33°C° 0 mm 5 m/s 750 mmHg 65%
    06:00 +32°C° 0 mm 6 m/s 751 mmHg 66%
    07:00 +34°C° 0 mm 6 m/s 751 mmHg 61%
    08:00 +35°C° 0 mm 7 m/s 752 mmHg 56%
    09:00 +38°C° 0 mm 7 m/s 752 mmHg 51%
    10:00 +40°C° 0 mm 7 m/s 752 mmHg 44%
    11:00 +43°C° 0 mm 7 m/s 751 mmHg 37%
    12:00 +45°C° 0 mm 6 m/s 751 mmHg 30%
    13:00 +46°C° 0 mm 6 m/s 750 mmHg 28%
    14:00 +46°C° 0 mm 6 m/s 749 mmHg 26%
    15:00 +47°C° 0 mm 6 m/s 748 mmHg 24%
    16:00 +46°C° 0 mm 7 m/s 748 mmHg 27%
    17:00 +45°C° 0 mm 7 m/s 747 mmHg 29%
    18:00 +44°C° 0 mm 8 m/s 747 mmHg 32%
    19:00 +41°C° 0.1 mm 8 m/s 748 mmHg 40%
    20:00 +39°C° 0.1 mm 9 m/s 749 mmHg 47%
    21:00 +37°C° 0.1 mm 10 m/s 749 mmHg 55%
    22:00 +35°C° 0 mm 9 m/s 750 mmHg 58%
    23:00 +34°C° 0 mm 9 m/s 750 mmHg 61%

    29 Avril, Lundi

    Heure Température Précipitation Vent Pression Humidité
    00:00 +34°C° 0 mm 8 m/s 750 mmHg 65%
    01:00 +33°C° 0 mm 8 m/s 750 mmHg 65%
    02:00 +33°C° 0 mm 7 m/s 750 mmHg 66%
    03:00 +33°C° 0 mm 7 m/s 750 mmHg 66%
    04:00 +33°C° 0 mm 7 m/s 750 mmHg 67%
    05:00 +33°C° 0 mm 6 m/s 750 mmHg 68%
    06:00 +33°C° 0 mm 6 m/s 750 mmHg 69%
    07:00 +34°C° 0 mm 7 m/s 751 mmHg 63%
    08:00 +35°C° 0 mm 7 m/s 752 mmHg 57%
    09:00 +38°C° 0 mm 7 m/s 752 mmHg 52%
    10:00 +40°C° 0 mm 7 m/s 752 mmHg 45%
    11:00 +43°C° 0 mm 7 m/s 751 mmHg 39%
    12:00 +45°C° 0 mm 7 m/s 751 mmHg 33%
    13:00 +46°C° 0 mm 6 m/s 750 mmHg 29%
    14:00 +46°C° 0 mm 6 m/s 749 mmHg 26%
    15:00 +47°C° 0 mm 6 m/s 748 mmHg 22%
    16:00 +46°C° 0 mm 6 m/s 747 mmHg 25%
    17:00 +45°C° 0 mm 7 m/s 747 mmHg 28%
    18:00 +44°C° 0 mm 7 m/s 747 mmHg 31%
    19:00 +41°C° 0 mm 8 m/s 748 mmHg 38%
    20:00 +39°C° 0 mm 9 m/s 749 mmHg 45%
    21:00 +37°C° 0 mm 9 m/s 749 mmHg 53%
    22:00 +35°C° 0 mm 9 m/s 750 mmHg 56%
    23:00 +35°C° 0 mm 9 m/s 750 mmHg 59%

    30 Avril, Mardi

    Heure Température Précipitation Vent Pression Humidité
    00:00 +34°C° 0 mm 9 m/s 750 mmHg 62%
    01:00 +34°C° 0 mm 8 m/s 750 mmHg 64%
    02:00 +33°C° 0 mm 7 m/s 750 mmHg 66%
    03:00 +33°C° 0 mm 6 m/s 749 mmHg 68%
    04:00 +33°C° 0 mm 6 m/s 750 mmHg 69%
    05:00 +33°C° 0 mm 6 m/s 750 mmHg 69%
    06:00 +32°C° 0 mm 5 m/s 750 mmHg 70%
    07:00 +34°C° 0 mm 6 m/s 751 mmHg 64%
    08:00 +35°C° 0 mm 6 m/s 751 mmHg 58%
    09:00 +38°C° 0 mm 7 m/s 752 mmHg 52%
    10:00 +40°C° 0 mm 7 m/s 751 mmHg 45%
    11:00 +43°C° 0 mm 7 m/s 751 mmHg 37%
    12:00 +45°C° 0 mm 7 m/s 750 mmHg 30%
    13:00 +46°C° 0 mm 7 m/s 749 mmHg 27%
    14:00 +47°C° 0 mm 7 m/s 748 mmHg 24%
    15:00 +49°C° 0 mm 7 m/s 747 mmHg 22%
    16:00 +47°C° 0 mm 7 m/s 747 mmHg 25%
    17:00 +45°C° 0 mm 8 m/s 746 mmHg 28%
    18:00 +44°C° 0 mm 8 m/s 746 mmHg 31%
    19:00 +42°C° 0 mm 9 m/s 747 mmHg 38%
    20:00 +39°C° 0 mm 9 m/s 748 mmHg 45%
    21:00 +37°C° 0 mm 10 m/s 748 mmHg 52%
    22:00 +35°C° 0 mm 9 m/s 749 mmHg 56%
    23:00 +35°C° 0 mm 9 m/s 749 mmHg 59%
    Voir plus